CAPE
0 0 0 0 0 0 0 0 0 0 22 49 17 16 20 32 3 17 69 31 98 101 149 318 259 442 714 1265 1081 1238 1329 1492 1280 1804 1776 2052 1688 1737 1412 1130 1475 1578 1555 1735
0 0 0 0 0 0 0 0 0 0 40 44 106 18 0 0 19 5 22 27 72 100 97 219 238 274 539 1107 1068 986 1393 2439 1577 1581 1793 1784 1567 1644 1720 1789 2050 1831 1761 1787
0 0 0 0 0 0 0 0 0 0 0 59 116 56 16 0 31 14 9 8 46 55 84 213 200 234 361 829 1201 1203 1303 2311 2184 1913 1694 1586 1566 1701 1576 1668 1607 1832 1871 1941
0 0 0 0 0 0 0 0 0 0 0 0 86 43 39 43 54 19 25 19 19 58 80 161 219 269 252 768 1305 1277 1486 2355 1800 1895 1570 1603 1309 1301 1398 1530 1817 1954 1831 1634
0 0 0 0 0 0 0 0 0 1 0 10 0 1 57 83 44 40 26 45 32 34 82 89 305 218 354 805 1089 1555 1574 1747 1811 2120 1498 1402 1351 1010 1336 1483 1468 2194 1882 1740
0 0 0 0 0 0 0 0 0 0 0 1 0 0 4 74 29 81 100 71 65 69 156 192 201 326 306 860 1219 1825 1789 1763 2202 1484 2031 1712 1920 1552 1424 1266 1841 2070 1601 1353
0 0 0 0 0 0 0 0 0 0 0 0 0 0 0 36 35 138 151 147 129 166 208 262 264 375 399 917 1462 1876 1884 1984 2160 2200 1809 1931 1980 1498 1269 1763 1577 1742 1420 821
0 0 0 0 0 0 0 0 0 0 0 0 0 0 0 59 56 217 199 47 151 113 210 282 316 246 540 724 1334 2054 2159 2108 2473 2363 2422 2031 2261 1840 1477 1877 1362 1128 944 807
0 0 0 0 0 0 0 0 0 0 0 0 0 0 0 22 65 101 77 40 26 2 299 348 337 268 476 639 1455 1545 2495 2319 2430 2649 2595 2290 2032 2526 2633 2328 1950 1147 639 910
0 0 0 0 0 0 0 0 0 0 0 0 0 0 0 0 36 87 35 32 40 22 191 426 356 288 485 662 1242 1566 2601 2504 2580 2122 2752 2834 2502 2203 2521 2702 1853 1772 1194 1546
0 0 0 0 0 0 0 0 0 0 0 0 0 0 0 0 109 91 36 27 54 6 82 430 339 343 621 746 1080 1582 2334 2538 2701 2651 2319 2794 3035 2556 2335 2684 2031 1682 1491 1009
0 0 0 0 0 0 0 0 0 0 0 0 0 0 0 0 97 122 94 52 26 3 185 420 493 414 830 850 887 1554 2636 2687 2817 2959 2752 2492 2866 2958 2496 2181 2291 2014 1507 1413
0 0 0 0 0 0 0 0 0 0 0 0 0 0 0 0 33 45 95 20 20 24 440 547 513 685 927 975 888 1406 2244 2842 2964 3044 3035 2892 2648 3003 2859 2375 2327 2613 1976 1741
38 0 0 0 0 0 0 0 0 0 0 0 0 0 0 10 40 0 57 21 22 52 113 580 615 637 866 1121 1168 1164 1723 2591 2918 3162 3049 2960 2902 2888 2960 2967 2387 2625 2858 2115
0 0 0 0 0 0 0 0 0 0 0 0 0 0 0 0 122 81 77 32 23 108 607 479 702 606 846 985 1132 1275 1487 1733 2643 2944 3050 2826 2887 2969 2998 2963 3144 2582 2711 2887
0 0 0 0 0 0 0 0 0 0 0 0 0 0 0 0 152 165 90 145 35 0 670 641 830 676 541 720 942 1162 1452 1645 1831 2693 2825 2814 2654 2855 2838 2979 2971 3292 2860 2939
0 0 0 0 0 0 0 0 0 0 0 0 0 0 0 0 0 212 312 103 20 15 505 529 635 940 601 712 857 1067 1335 1545 1735 1994 2616 2677 2642 2700 2755 2809 2887 3149 3336 3122
0 0 0 0 3 0 0 0 0 0 1 0 0 0 0 0 0 0 0 8 0 36 220 770 989 1445 1539 1018 923 1061 1183 1476 1590 1696 2155 2453 2531 2556 2715 2837 2998 2956 3359 3261
0 0 0 0 0 0 0 0 0 1 0 6 76 17 52 14 0 0 0 0 0 1 17 52 824 1114 1457 1827 1259 1063 1103 1288 1380 1408 1572 2092 2301 2546 2606 2896 2881 3137 3058 3365
0 0 0 0 0 0 0 0 4 266 127 697 488 384 246 90 32 97 631 473 278 9 0 3 26 424 1499 1503 2167 1832 1494 1301 1304 1281 1762 1933 2131 2378 2761 2940 3027 3135 3297 3542
4 59 25 1 0 0 0 0 271 251 198 718 636 606 588 503 525 449 482 343 518 540 54 0 0 270 1378 1651 2349 2150 1989 1750 1734 1836 2072 2391 2725 2808 3120 3142 3286 3621 3700 3681
38 0 0 14 0 0 421 226 297 381 952 973 595 516 479 513 389 286 384 542 362 1090 1001 327 0 1004 1810 1968 2475 2593 2698 2303 2079 3665 3194 4407 4111 4105 4125 3922 3975 3753 3290 3650
1 2 41 78 664 575 947 941 877 1484 1464 1663 1680 1735 1782 1730 1757 1952 2295 2282 2217 2116 3083 3192 3203 3267 3179 2804 2901 3055 3791 3775 3852 3807 4131 4425 4463 4580 4374 4275 3761 3220 3741 3709
11 85 79 297 224 151 371 463 1361 1219 1117 1293 1281 1471 1437 1477 1666 1977 2286 2475 2748 2954 3174 3187 3216 3716 4110 4129 4031 4119 3915 3860 3905 3899 3938 3938 3906 3928 4039 4004 3212 3336 3106 2321
10 9 159 185 414 671 911 1116 855 966 822 558 857 1188 1451 1439 1544 1629 1584 1840 2296 2662 3153 3478 3893 3759 3803 3790 3851 3709 3690 3693 3687 3700 3703 3621 3525 3446 3381 3256 2998 2664 2074 1749
0 98 158 208 3 0 289 234 563 532 431 396 697 887 875 1154 1131 1077 1116 1339 1687 2035 1875 2458 3394 3517 3626 3691 3638 3593 3531 3436 3425 3325 2629 2840 3015 2987 2894 2750 2268 1817 1493 1382
CIN
-0 -0 -0 -0 -0 -0 -0 -0 -0 -0 -5 -136 -129 -68 -47 -40 -52 -128 -155 -111 -100 -86 -70 -39 -51 -47 -53 -83 -108 -104 -85 -118 -131 -55 -43 -16 -11 -39 -22 -63 -78 -75 -75 -39
-0 -0 -0 -0 -0 -0 -0 -0 -0 -0 -1 -82 -196 -196 -0 -0 -42 -132 -217 -147 -145 -143 -130 -92 -79 -77 -77 -98 -133 -152 -99 -61 -86 -86 -39 -15 -23 -20 -28 -33 -44 -74 -52 -41
-0 -0 -0 -0 -0 -0 -0 -0 -0 -0 -0 -40 -156 -119 -215 -0 -23 -64 -191 -107 -134 -186 -211 -175 -159 -138 -110 -120 -160 -168 -145 -60 -55 -36 -50 -60 -61 -33 -16 -14 -63 -65 -72 -83
-0 -0 -0 -0 -0 -0 -0 -0 -0 -0 -0 -0 -35 -29 -30 -29 -35 -68 -88 -62 -141 -177 -222 -228 -214 -178 -176 -171 -151 -171 -157 -77 -49 -62 -46 -29 -40 -28 -54 -71 -51 -77 -82 -82
-0 -0 -0 -0 -0 -0 -0 -0 -0 -10 -0 -11 -0 -6 -72 -44 -50 -96 -38 -48 -66 -73 -65 -213 -229 -251 -213 -225 -207 -195 -162 -110 -83 -42 -41 -58 -48 -70 -49 -14 -40 -57 -35 -34
-0 -0 -0 -0 -0 -0 -0 -0 -0 -0 -0 -2 -0 -0 -21 -39 -60 -27 -20 -27 -77 -45 -44 -58 -134 -245 -225 -242 -226 -189 -173 -151 -94 -78 -36 -54 -19 -33 -27 -61 -72 -40 -80 -64
-0 -0 -0 -0 -0 -0 -0 -0 -0 -0 -0 -0 -0 -0 -0 -31 -19 -53 -38 -26 -27 -41 -42 -50 -61 -241 -266 -270 -250 -226 -195 -150 -104 -94 -101 -51 -27 -44 -56 -36 -59 -52 -42 -85
-0 -0 -0 -0 -0 -0 -0 -0 -0 -0 -0 -0 -0 -0 -0 -87 -27 -53 -28 -29 -22 -27 -54 -43 -57 -246 -278 -286 -277 -251 -230 -162 -102 -84 -67 -73 -43 -39 -111 -60 -34 -73 -82 -104
-0 -0 -0 -0 -0 -0 -0 -0 -0 -0 -0 -0 -0 -0 -0 -52 -28 -39 -13 -22 -17 -44 -25 -33 -55 -45 -289 -301 -316 -284 -228 -188 -127 -85 -72 -69 -96 -32 -33 -27 -43 -58 -87 -136
-0 -0 -0 -0 -0 -0 -0 -0 -0 -0 -0 -0 -0 -0 -0 -0 -47 -52 -22 -5 -46 -37 -77 -42 -53 -44 -347 -338 -332 -312 -254 -228 -157 -139 -68 -66 -85 -89 -38 -16 -66 -54 -68 -103
-0 -0 -0 -0 -0 -0 -0 -0 -0 -0 -0 -0 -0 -0 -0 -0 -76 -72 -21 -48 -48 -33 -98 -51 -55 -45 -341 -347 -334 -321 -286 -233 -166 -141 -139 -79 -64 -88 -70 -27 -68 -82 -85 -200
-0 -0 -0 -0 -0 -0 -0 -0 -0 -0 -0 -0 -0 -0 -0 -0 -87 -46 -45 -32 -20 -51 -78 -78 -51 -46 -283 -308 -351 -351 -292 -269 -218 -165 -136 -141 -90 -65 -86 -106 -85 -118 -112 -117
-0 -0 -0 -0 -0 -0 -0 -0 -0 -0 -0 -0 -0 -0 -0 -0 -8 -9 -23 -15 -4 -14 -77 -51 -46 -141 -247 -315 -333 -338 -317 -285 -228 -170 -149 -121 -126 -87 -98 -142 -131 -96 -105 -144
-143 -0 -0 -0 -0 -0 -0 -0 -0 -0 -0 -0 -0 -0 -0 -35 -88 -3 -45 -56 -42 -60 -91 -39 -56 -143 -183 -259 -315 -332 -332 -295 -262 -199 -176 -156 -141 -152 -138 -125 -158 -111 -69 -99
-0 -0 -0 -0 -0 -0 -0 -0 -0 -0 -0 -0 -0 -0 -0 -0 -108 -64 -48 -37 -58 -59 -144 -87 -49 -43 -179 -199 -252 -329 -326 -307 -286 -253 -213 -222 -203 -161 -131 -116 -101 -135 -84 -61
-0 -0 -0 -0 -0 -0 -0 -0 -0 -0 -0 -0 -0 -0 -0 -0 -136 -64 -98 -35 -29 -0 -66 -77 -28 -22 -58 -157 -244 -274 -312 -308 -282 -296 -281 -244 -222 -178 -164 -137 -123 -78 -93 -58
-0 -0 -0 -0 -0 -2 -0 -0 -0 -0 -0 -0 -0 -0 -0 -0 -0 -58 -56 -13 -64 -124 -132 -133 -133 -218 -130 -242 -256 -301 -328 -318 -309 -278 -293 -266 -240 -219 -196 -169 -139 -102 -63 -58
-0 -0 -0 -0 -43 -0 -0 -0 -0 -0 -13 -0 -0 -0 -0 -0 -0 -0 -0 -3 -0 -198 -133 -126 -159 -107 -228 -219 -231 -276 -291 -297 -304 -285 -321 -304 -276 -253 -220 -172 -153 -119 -62 -39
-0 -0 -0 -0 -0 -0 -0 -0 -0 -3 -0 -37 -54 -71 -61 -173 -0 -0 -0 -0 -0 -11 -99 -94 -92 -142 -147 -116 -79 -223 -260 -345 -305 -318 -334 -369 -352 -298 -254 -203 -159 -119 -78 -28
-0 -0 -0 -0 -0 -0 -0 -0 -35 -51 -33 -129 -120 -119 -134 -153 -147 -198 -286 -193 -203 -16 -0 -98 -47 -106 -193 -107 -59 -49 -38 -34 -331 -343 -448 -414 -353 -317 -277 -214 -143 -111 -46 -22
-13 -37 -16 -2 -0 -0 -0 -0 -73 -15 -45 -121 -144 -155 -167 -138 -137 -163 -236 -270 -253 -160 -94 -0 -0 -183 -219 -177 -176 -122 -45 -50 -283 -388 -349 -317 -283 -254 -226 -162 -104 -42 -23 -9
-17 -0 -6 -12 -0 -0 -53 -26 -20 -84 -106 -127 -132 -140 -151 -173 -195 -213 -157 -174 -234 -163 -98 -80 -0 -339 -359 -253 -187 -213 -209 -227 -256 -211 -212 -101 -129 -109 -101 -79 -34 -36 -41 -15
-2 -21 -7 -32 -35 -124 -162 -131 -85 -130 -132 -113 -143 -207 -134 -145 -131 -131 -120 -109 -138 -139 -73 -185 -309 -321 -323 -353 -245 -220 -318 -250 -216 -161 -84 -55 -40 -38 -39 -16 -29 -7 -4 -0
-11 -45 -35 -10 -117 -107 -97 -105 -51 -39 -124 -132 -172 -131 -145 -110 -106 -84 -81 -138 -117 -143 -121 -193 -222 -232 -203 -249 -266 -253 -218 -170 -143 -94 -78 -45 -33 -21 -8 -5 -22 -19 -24 -82
-23 -10 -34 -86 -93 -31 -44 -19 -72 -44 -31 -196 -147 -101 -117 -66 -54 -24 -43 -70 -96 -101 -111 -178 -228 -228 -202 -143 -139 -92 -146 -163 -149 -95 -41 -12 -10 -17 -20 -5 -23 -61 -146 -136
-0 -1 -13 -23 -85 -0 -3 -21 -31 -78 -40 -171 -132 -94 -106 -60 -29 -98 -128 -132 -113 -76 -118 -53 -84 -132 -138 -132 -111 -96 -94 -123 -82 -36 -30 -32 -9 -5 -30 -46 -92 -127 -136 -138
Wind_Speed
nan nan nan nan nan nan nan nan nan nan nan nan nan nan nan nan nan nan nan nan nan 15 9 7 6 3 5 8 10 9 5 11 9 3 5 1 2 4 3 3 6 9 10 11
nan nan nan nan nan nan nan nan nan nan nan nan 25 nan nan nan nan nan nan nan nan 18 nan 12 10 10 10 11 13 11 9 10 11 7 4 3 2 2 1 2 6 11 13 15
nan nan nan nan nan nan nan nan nan nan nan nan 28 nan nan nan nan nan nan nan nan nan nan 18 15 11 10 12 13 13 12 12 11 11 7 7 7 7 5 4 7 11 16 18
nan nan nan nan nan nan nan nan nan nan nan nan nan nan nan nan nan nan nan nan nan nan nan 25 25 21 19 15 15 16 15 16 13 13 10 10 8 8 4 5 9 15 20 22
nan nan nan nan nan nan nan nan nan nan nan nan nan nan nan nan nan nan nan nan nan nan nan nan 31 31 27 23 21 19 19 18 18 14 15 12 11 9 7 10 15 17 17 17
nan nan nan nan nan nan nan nan nan nan nan nan nan nan nan nan nan nan 29 nan nan nan 25 23 28 33 25 26 26 25 24 23 23 21 18 17 15 14 12 14 17 19 16 14
nan nan nan nan nan nan nan nan nan nan nan nan nan nan nan nan nan 35 26 26 34 32 18 21 27 30 27 25 24 24 25 26 24 24 19 18 17 15 16 17 18 17 12 11
nan nan nan nan nan nan nan nan nan nan nan nan nan nan nan nan nan 34 37 nan 31 41 24 22 27 34 26 26 23 22 23 27 28 26 22 17 18 16 17 17 15 13 13 5
nan nan nan nan nan nan nan nan nan nan nan nan nan nan nan nan nan 24 nan nan nan nan 16 20 27 29 28 25 23 23 22 23 26 24 23 22 21 19 17 14 10 7 5 8
nan nan nan nan nan nan nan nan nan nan nan nan nan nan nan nan nan nan nan nan nan nan 26 18 28 31 32 25 24 21 23 25 23 21 19 18 17 16 13 9 6 4 7 15
nan nan nan nan nan nan nan nan nan nan nan nan nan nan nan nan 20 nan nan nan nan nan nan 38 32 39 38 31 27 23 22 26 23 21 19 16 14 11 10 4 1 8 10 12
nan nan nan nan nan nan nan nan nan nan nan nan nan nan nan nan nan 34 nan nan nan nan 42 39 34 37 35 41 29 21 21 24 26 24 22 18 12 9 9 8 3 11 14 16
nan nan nan nan nan nan nan nan nan nan nan nan nan nan nan nan nan nan nan nan nan nan 34 39 41 43 33 29 28 23 23 24 25 21 19 13 12 11 11 8 10 12 14 18
nan nan nan nan nan nan nan nan nan nan nan nan nan nan nan nan nan nan nan nan nan nan 30 34 37 35 29 25 25 23 22 26 26 23 15 12 13 13 11 10 10 11 15 20
nan nan nan nan nan nan nan nan nan nan nan nan nan nan nan nan 40 nan nan nan nan 28 29 35 36 37 32 25 25 21 23 25 29 27 17 13 11 11 10 8 8 10 13 19
nan nan nan nan nan nan nan nan nan nan nan nan nan nan nan nan 28 21 nan 38 nan nan 30 34 36 41 35 37 37 36 26 25 29 27 24 15 13 12 11 10 10 13 18 21
nan nan nan nan nan nan nan nan nan nan nan nan nan nan nan nan nan 28 22 28 nan nan 33 36 34 34 39 43 45 42 36 29 29 26 24 20 17 15 13 13 14 17 19 23
nan nan nan nan nan nan nan nan nan nan nan nan nan nan nan nan nan nan nan nan nan nan 36 29 38 40 42 45 47 45 44 36 31 25 25 24 20 15 14 18 18 18 19 22
nan nan nan nan nan nan nan nan nan nan nan nan nan nan nan nan nan nan nan nan nan nan nan nan 42 30 37 38 41 42 44 37 32 24 27 28 23 22 18 17 19 20 21 23
nan nan nan nan nan nan nan nan nan 51 45 46 51 49 49 nan nan nan 68 67 59 nan nan nan nan 36 39 37 39 45 43 40 37 26 26 30 28 24 21 18 21 24 27 27
nan nan nan nan nan nan nan nan 44 43 45 55 61 58 58 51 45 39 46 69 68 56 nan nan nan 58 49 41 43 39 36 35 32 31 35 37 34 29 25 28 31 35 36 36
nan nan nan nan nan nan 58 60 45 41 60 59 56 57 57 52 51 50 40 33 44 75 71 60 nan 47 48 53 57 38 32 32 40 41 40 44 39 32 29 30 31 37 37 47
nan nan nan nan 43 47 54 52 63 69 66 67 69 62 59 65 62 60 61 53 51 54 66 76 83 70 58 60 71 65 59 56 47 47 47 46 42 39 35 33 38 37 43 46
nan nan nan 54 67 67 59 61 68 74 70 72 62 56 54 53 51 59 59 61 59 59 57 61 71 81 81 78 65 67 71 66 55 54 52 50 44 44 43 38 38 42 48 51
nan nan 40 51 62 65 55 69 63 63 63 64 67 54 54 57 58 58 61 59 51 50 61 63 66 66 62 60 70 73 77 75 66 56 53 51 46 48 47 45 41 48 47 41
nan nan 57 51 nan nan 68 52 56 74 58 73 67 63 54 53 54 57 55 53 49 56 53 48 67 66 61 61 62 59 61 69 60 55 54 51 48 46 48 52 50 59 55 48
Wind_Direction
nan nan nan nan nan nan nan nan nan nan nan nan nan nan nan nan nan nan nan nan nan 359 7 357 3 343 313 320 329 333 321 343 341 338 332 311 93 138 140 98 327 353 342 333
nan nan nan nan nan nan nan nan nan nan nan nan 299 nan nan nan nan nan nan nan nan 347 nan 345 348 337 331 326 330 331 327 312 329 315 283 273 266 227 178 256 328 338 325 329
nan nan nan nan nan nan nan nan nan nan nan nan 272 nan nan nan nan nan nan nan nan nan nan 339 343 339 325 326 321 327 324 301 296 298 275 246 226 220 221 275 316 321 326 320
nan nan nan nan nan nan nan nan nan nan nan nan nan nan nan nan nan nan nan nan nan nan nan 336 340 337 337 326 326 323 317 306 301 294 290 278 265 260 257 302 301 321 315 319
nan nan nan nan nan nan nan nan nan nan nan nan nan nan nan nan nan nan nan nan nan nan nan nan 347 340 331 319 320 317 320 319 308 298 298 285 275 280 264 271 298 303 320 322
nan nan nan nan nan nan nan nan nan nan nan nan nan nan nan nan nan nan 322 nan nan nan 344 333 343 333 323 314 312 303 308 313 307 309 291 292 287 290 284 278 289 319 327 329
nan nan nan nan nan nan nan nan nan nan nan nan nan nan nan nan nan 318 313 296 302 302 343 341 338 340 327 313 313 310 310 305 303 304 304 291 293 297 294 291 310 315 319 328
nan nan nan nan nan nan nan nan nan nan nan nan nan nan nan nan nan 311 309 nan 302 307 316 350 341 339 332 322 321 316 316 307 303 299 298 290 285 286 285 292 303 326 330 348
nan nan nan nan nan nan nan nan nan nan nan nan nan nan nan nan nan 285 nan nan nan nan 309 348 337 342 326 321 327 336 334 319 314 308 298 290 288 290 291 299 323 357 358 4
nan nan nan nan nan nan nan nan nan nan nan nan nan nan nan nan nan nan nan nan nan nan 292 326 320 324 325 320 319 329 340 339 337 334 313 303 292 297 294 307 13 18 5 339
nan nan nan nan nan nan nan nan nan nan nan nan nan nan nan nan 286 nan nan nan nan nan nan 310 318 321 326 305 300 321 331 337 338 340 342 329 309 305 318 346 18 349 357 340
nan nan nan nan nan nan nan nan nan nan nan nan nan nan nan nan nan 302 nan nan nan nan 318 307 304 303 310 308 306 326 322 338 342 342 350 355 354 348 360 22 282 334 349 338
nan nan nan nan nan nan nan nan nan nan nan nan nan nan nan nan nan nan nan nan nan nan 275 302 287 290 302 296 302 312 318 331 337 342 348 358 17 23 21 15 345 330 338 339
nan nan nan nan nan nan nan nan nan nan nan nan nan nan nan nan nan nan nan nan nan nan 253 271 277 286 292 294 289 303 312 318 325 340 348 4 15 22 19 349 353 341 329 345
nan nan nan nan nan nan nan nan nan nan nan nan nan nan nan nan 219 nan nan nan nan 241 227 237 262 266 280 292 296 295 303 310 316 327 337 352 355 4 5 336 325 343 340 345
nan nan nan nan nan nan nan nan nan nan nan nan nan nan nan nan 224 252 nan 276 nan nan 224 253 258 268 281 289 289 291 302 305 307 312 331 317 321 335 343 320 305 309 329 321
nan nan nan nan nan nan nan nan nan nan nan nan nan nan nan nan nan 225 234 240 nan nan 246 238 244 271 280 291 300 305 301 299 299 298 301 313 313 316 325 301 310 311 313 307
nan nan nan nan nan nan nan nan nan nan nan nan nan nan nan nan nan nan nan nan nan nan 239 222 247 251 265 281 284 289 294 303 305 291 290 299 306 315 300 303 308 313 314 331
nan nan nan nan nan nan nan nan nan nan nan nan nan nan nan nan nan nan nan nan nan nan nan nan 230 238 251 272 282 289 290 291 296 283 283 294 304 312 286 296 305 299 316 319
nan nan nan nan nan nan nan nan nan 216 221 218 227 229 230 nan nan nan 217 227 222 nan nan nan nan 257 233 251 271 274 278 286 291 285 284 289 290 298 278 270 285 290 295 297
nan nan nan nan nan nan nan nan 209 218 219 228 227 228 231 237 252 248 223 220 229 225 nan nan nan 253 262 258 259 261 269 279 288 270 261 271 275 286 274 269 267 276 283 285
nan nan nan nan nan nan 212 220 217 214 224 226 224 227 231 236 231 237 247 250 233 230 230 235 nan 250 260 260 267 264 253 267 267 260 264 259 270 271 270 279 278 277 284 289
nan nan nan nan 202 215 208 210 207 219 224 225 233 229 235 238 239 239 233 232 237 231 234 237 241 241 244 256 261 259 257 270 257 257 257 259 262 266 273 279 276 278 283 291
nan nan nan 179 197 209 199 209 221 223 226 226 231 232 234 242 240 238 239 242 242 237 238 244 243 242 239 243 240 252 259 258 253 252 250 253 259 262 266 268 274 279 282 285
nan nan 183 190 196 184 214 213 220 227 235 231 237 230 237 241 238 241 245 245 251 244 242 239 249 250 249 242 244 248 250 256 249 248 247 249 251 255 257 258 261 272 267 270
nan nan 198 196 nan nan 199 213 225 226 231 230 239 236 232 236 242 247 250 251 248 243 259 221 234 242 240 245 245 247 250 247 243 239 242 240 245 254 260 263 262 251 262 271